Wind_Speed
2 5 9 15 9 1 3 2 5 3 1 4 12 19 18 23 22 24 26 28 28 32 30 28 31 33 34 37 39 39 38 37 37 36 35 35 35 36 36 37 33 34 32 33
4 9 13 5 7 5 5 9 12 7 2 5 12 22 19 23 28 26 29 31 31 32 33 34 34 33 36 38 40 41 40 39 39 38 37 37 35 35 36 35 34 34 33 33
12 4 7 8 7 9 9 12 9 9 1 7 10 16 15 10 19 23 31 33 34 36 36 29 35 38 36 39 42 42 42 41 40 39 38 38 34 34 37 38 37 35 34 35
8 3 5 8 9 12 14 12 9 6 4 6 2 10 18 17 17 15 25 27 32 33 33 29 32 37 36 38 39 42 43 43 41 40 41 39 38 38 40 39 36 34 34 38
6 10 12 11 8 13 3 5 7 2 5 5 9 7 8 4 13 16 24 28 28 28 26 26 25 25 26 33 38 39 42 44 44 44 41 40 39 38 38 37 35 35 37 35
1 1 5 4 3 4 12 7 5 3 1 8 10 10 10 11 8 5 7 11 13 15 16 15 17 20 22 25 30 35 39 42 45 46 44 43 41 39 41 39 38 40 39 38
5 8 3 4 6 4 4 8 3 5 5 10 3 6 15 7 11 10 13 24 15 13 11 11 10 10 13 18 23 29 34 38 43 46 45 44 42 41 41 39 40 40 41 42
11 11 13 10 15 9 12 10 7 7 5 8 2 10 8 10 13 22 23 27 24 25 18 13 11 13 14 17 19 22 26 31 38 44 44 43 41 42 40 39 39 38 38 39
8 7 1 3 5 13 7 11 10 7 0 4 10 20 21 15 16 20 26 26 24 21 20 16 12 12 14 14 15 17 21 25 31 36 41 44 44 41 41 40 40 36 37 37
3 7 1 3 3 1 10 7 5 5 6 10 14 15 15 6 11 10 7 13 16 19 22 19 15 15 13 12 11 13 17 21 25 29 36 42 42 41 40 39 41 39 38 37
9 4 3 4 10 13 6 12 5 3 5 6 9 12 11 14 9 7 7 9 10 7 7 13 15 13 11 12 9 8 13 17 22 25 31 38 41 40 39 39 42 41 39 38
8 1 8 13 0 5 10 19 22 8 8 5 8 15 2 5 3 7 10 10 4 8 5 10 14 14 11 8 5 11 12 15 18 21 26 33 37 39 41 41 42 42 40 39
8 5 4 6 3 2 8 12 12 21 1 12 12 13 1 7 12 4 6 6 7 6 8 12 14 14 15 12 10 15 16 17 19 21 24 29 36 41 42 42 42 42 41 40
3 6 10 15 12 3 8 17 19 18 9 20 19 27 28 16 9 11 17 18 13 11 12 15 16 17 18 19 20 20 19 21 23 23 26 30 35 40 41 40 41 42 41 40
2 6 16 25 23 11 8 11 22 22 28 22 29 26 35 26 21 28 33 39 31 35 39 39 37 34 32 32 29 25 23 26 29 29 29 31 34 39 41 40 41 41 41 40
6 4 3 19 24 19 22 16 14 24 28 24 30 29 33 37 34 28 29 25 27 33 38 43 37 43 41 35 35 37 30 31 33 34 33 33 36 40 42 41 41 42 41 40
3 6 4 14 17 14 16 25 26 23 23 23 23 32 26 24 21 27 29 28 36 39 41 41 45 43 43 42 39 37 35 36 37 39 37 37 38 40 42 43 40 43 43 41
7 2 1 7 2 14 7 17 23 26 28 26 22 25 27 31 34 27 27 31 36 37 39 43 45 43 40 37 35 34 35 35 36 37 38 37 39 39 41 43 42 44 45 43
20 12 8 8 11 15 17 9 6 10 22 23 25 30 39 44 28 39 42 36 42 41 37 33 30 28 25 23 23 24 26 28 32 34 35 35 37 39 41 43 43 44 44 43
20 20 15 16 18 23 19 17 7 3 11 21 21 26 26 32 11 19 21 20 22 21 21 19 17 21 25 26 27 27 27 27 28 29 29 30 33 35 37 38 40 40 41 41
4 6 17 18 14 11 13 27 9 7 10 15 13 28 29 12 17 27 19 14 16 19 24 26 23 23 23 24 26 27 27 26 22 22 22 23 25 26 28 31 35 37 38 39
11 8 7 7 9 9 3 4 9 2 16 23 28 22 18 21 22 22 24 20 16 19 21 20 19 17 17 17 17 17 18 17 16 16 16 17 17 19 23 26 28 31 32 33
16 12 10 9 9 3 3 7 16 16 18 28 28 32 22 24 18 15 14 14 15 16 18 20 19 17 16 15 12 11 11 11 11 11 11 12 13 15 17 19 22 24 25 25
4 7 6 5 5 11 19 24 25 28 26 28 26 28 30 28 21 19 17 17 16 15 16 15 14 14 11 10 8 7 6 7 8 8 9 10 10 11 12 14 16 18 20 23
11 7 5 8 11 18 23 19 14 16 17 20 23 27 28 26 27 21 17 17 16 15 14 12 10 8 7 8 9 10 9 10 11 11 11 11 11 11 12 13 15 17 17 17
16 12 7 8 17 19 23 23 18 22 25 23 21 22 20 24 26 19 17 16 15 12 10 9 8 9 12 15 15 14 13 11 9 10 10 9 10 13 14 17 20 21 19 20
Wind_Direction
91 204 214 227 221 234 124 209 247 236 147 261 255 266 267 270 268 262 262 259 256 255 256 252 244 241 237 235 234 234 235 235 233 233 232 233 232 229 227 223 224 226 224 225
163 226 232 107 169 190 215 253 257 279 199 231 278 277 276 265 260 257 260 258 254 255 255 252 250 244 239 238 237 237 237 237 237 237 236 237 237 233 228 225 224 221 222 224
215 187 166 177 177 201 225 235 248 264 323 235 291 272 262 259 256 260 257 256 257 254 256 250 252 249 245 241 239 239 239 239 239 237 235 236 235 232 225 223 224 218 219 225
244 194 171 183 211 202 241 213 235 255 285 272 272 288 280 276 264 248 259 255 257 258 260 256 249 252 248 247 245 240 240 240 239 237 238 238 239 234 228 229 225 215 220 226
203 181 195 214 221 190 237 131 180 179 242 306 213 256 260 263 269 256 251 255 257 263 262 263 267 265 259 250 246 245 241 240 240 239 239 239 238 235 234 231 221 217 217 222
286 354 192 201 95 182 139 95 78 83 242 264 243 230 261 253 248 277 261 264 269 271 272 268 259 256 248 242 240 240 240 240 239 239 238 238 237 234 230 226 223 219 220 222
184 215 177 168 116 92 209 170 207 223 198 249 82 238 250 263 260 242 273 288 286 275 262 264 263 261 256 251 244 241 238 239 239 239 236 236 235 234 231 230 223 221 220 218
210 233 185 183 214 180 197 200 212 229 214 262 110 239 259 234 268 276 269 267 270 274 269 257 253 256 253 248 245 244 243 241 239 238 235 234 232 233 229 228 227 225 228 228
192 241 187 219 181 182 179 217 249 267 138 293 250 264 273 239 257 242 256 264 273 276 274 269 246 241 243 243 248 251 252 250 247 242 237 234 234 234 230 228 226 227 228 227
221 256 175 148 154 224 213 152 190 213 227 236 252 259 256 279 294 272 254 270 283 278 262 252 239 228 229 230 236 255 262 259 254 248 239 237 236 234 231 226 224 226 228 228
221 245 140 163 205 182 185 215 218 235 220 245 258 255 259 256 261 281 304 308 302 299 242 220 212 216 222 226 234 265 273 270 264 253 242 237 235 233 231 225 223 225 229 228
207 254 252 233 193 249 237 226 210 216 211 244 267 263 162 255 246 302 319 310 288 297 222 202 207 210 213 227 281 272 277 280 271 261 248 241 235 233 232 227 225 226 225 229
176 178 240 259 213 210 228 215 222 227 46 224 227 253 132 264 266 298 288 326 274 284 263 239 228 226 226 235 285 265 259 271 275 263 253 243 234 232 233 230 226 226 225 227
339 185 222 238 245 120 208 225 214 205 220 236 236 250 259 241 259 262 274 288 286 285 263 257 258 255 254 272 274 270 267 268 265 262 255 248 239 235 235 232 226 227 226 230
297 236 235 247 257 255 249 221 215 215 226 223 246 240 257 257 256 260 275 282 284 278 278 278 280 278 278 274 272 273 282 274 266 261 257 252 243 237 236 233 227 228 229 233
208 244 272 254 256 251 255 257 239 220 230 239 246 254 251 262 262 264 263 266 272 275 275 277 283 290 295 291 293 290 280 273 264 259 258 251 244 239 235 234 228 228 229 232
224 182 210 263 260 256 243 239 242 246 240 236 239 244 263 266 261 262 265 259 259 265 270 273 280 284 284 286 286 282 283 273 266 261 257 252 247 242 236 234 231 228 229 232
228 236 234 249 258 254 250 251 237 240 245 243 246 255 256 257 270 273 260 259 268 271 273 279 284 284 284 283 281 279 274 270 266 261 257 252 248 244 237 234 232 230 228 229
209 230 254 255 252 280 285 273 208 218 251 246 245 251 257 264 278 275 266 260 267 276 280 277 279 279 281 284 281 277 274 271 266 263 258 253 250 244 239 235 231 229 229 231
224 224 226 240 250 259 253 249 226 204 259 257 237 244 253 260 247 261 280 274 268 269 273 276 274 277 278 276 274 271 274 272 268 265 262 255 250 245 241 238 236 234 233 233
174 217 226 236 249 253 259 272 266 229 288 337 244 230 249 246 234 259 280 271 277 275 279 281 280 279 276 272 271 271 269 265 265 259 254 251 249 246 243 239 235 234 231 232
260 255 247 236 234 248 358 131 225 10 338 340 320 304 287 276 275 269 272 283 277 275 279 284 288 288 285 280 272 265 260 258 252 246 240 235 233 232 230 229 230 229 229 229
242 233 251 245 258 165 256 273 299 303 315 301 301 301 310 292 288 283 279 285 283 276 275 277 279 280 282 276 266 261 255 247 237 226 219 215 212 213 214 217 219 222 223 223
289 267 252 328 259 283 292 292 283 287 275 264 272 283 290 287 284 281 285 286 285 281 276 275 276 275 266 256 245 226 200 185 174 176 176 179 185 188 193 199 206 215 214 203
267 291 254 269 269 278 276 274 285 288 291 295 283 272 276 280 277 277 279 277 277 269 263 260 256 249 223 183 153 142 144 141 141 140 144 151 155 159 169 182 194 199 211 220
233 234 248 262 279 279 276 295 288 298 302 299 292 288 288 273 275 272 275 269 254 246 245 238 214 193 174 152 144 141 138 134 136 130 133 143 157 166 173 183 189 195 202 213
Height
1545 1544 1544 1538 1545 1549 1548 1549 1547 1544 1550 1550 1541 1533 1529 1528 1527 1524 1523 1519 1517 1515 1518 1519 1521 1523 1525 1527 1528 1531 1533 1535 1537 1539 1541 1542 1543 1546 1549 1553 1557 1560 1563 1565
1545 1542 1538 1545 1549 1550 1551 1549 1546 1544 1551 1552 1539 1529 1523 1522 1515 1514 1512 1509 1508 1507 1508 1511 1513 1515 1516 1518 1520 1522 1524 1527 1529 1531 1534 1535 1537 1539 1543 1547 1550 1552 1556 1559
1534 1534 1539 1543 1548 1549 1548 1547 1545 1546 1550 1549 1545 1524 1510 1507 1507 1506 1501 1500 1499 1497 1496 1501 1502 1505 1508 1508 1510 1514 1517 1520 1522 1525 1526 1528 1531 1533 1535 1538 1541 1544 1549 1552
1538 1537 1539 1542 1542 1542 1542 1542 1545 1548 1550 1543 1548 1524 1504 1499 1499 1498 1493 1491 1487 1486 1487 1491 1493 1494 1497 1500 1503 1505 1508 1511 1514 1517 1518 1520 1523 1524 1526 1530 1535 1539 1543 1545
1527 1534 1538 1539 1535 1539 1537 1543 1546 1550 1548 1550 1539 1544 1500 1503 1492 1488 1482 1481 1480 1480 1481 1483 1484 1486 1488 1491 1492 1496 1499 1502 1504 1507 1511 1513 1515 1519 1521 1525 1529 1532 1536 1540
1529 1533 1533 1531 1539 1540 1545 1546 1550 1553 1552 1545 1521 1530 1492 1485 1481 1480 1477 1476 1476 1477 1477 1477 1477 1478 1480 1482 1484 1486 1489 1492 1496 1498 1501 1504 1507 1510 1513 1516 1521 1525 1529 1533
1531 1529 1531 1531 1536 1543 1542 1540 1547 1550 1555 1530 1534 1532 1486 1482 1478 1477 1475 1472 1473 1473 1473 1473 1474 1475 1476 1477 1478 1479 1480 1482 1486 1489 1493 1496 1499 1501 1506 1509 1513 1517 1520 1524
1522 1523 1524 1523 1519 1528 1538 1530 1531 1539 1539 1515 1545 1517 1472 1476 1478 1473 1471 1468 1468 1468 1469 1470 1471 1471 1472 1472 1473 1474 1475 1476 1477 1480 1484 1489 1493 1495 1499 1503 1507 1512 1515 1519
1517 1517 1518 1518 1517 1519 1533 1535 1522 1530 1558 1541 1504 1480 1468 1473 1470 1467 1465 1465 1461 1463 1464 1465 1466 1467 1468 1468 1470 1470 1471 1472 1471 1473 1477 1479 1484 1488 1492 1497 1502 1507 1510 1514
1508 1511 1516 1517 1520 1520 1518 1517 1530 1532 1535 1528 1493 1490 1471 1465 1460 1457 1460 1460 1459 1457 1458 1461 1463 1463 1464 1465 1465 1466 1466 1466 1467 1468 1469 1472 1477 1481 1485 1489 1494 1500 1504 1508
1506 1511 1517 1518 1512 1509 1520 1518 1518 1515 1517 1508 1503 1475 1455 1457 1457 1459 1459 1457 1456 1453 1452 1455 1458 1461 1462 1463 1462 1461 1460 1461 1461 1461 1463 1465 1467 1472 1476 1481 1487 1491 1497 1501
1504 1507 1507 1503 1506 1506 1501 1494 1501 1507 1512 1511 1502 1475 1459 1461 1460 1459 1457 1456 1454 1455 1453 1454 1456 1457 1459 1460 1459 1459 1457 1455 1455 1456 1457 1459 1462 1465 1468 1473 1478 1483 1489 1493
1504 1511 1514 1502 1507 1509 1502 1495 1495 1493 1509 1500 1500 1475 1457 1461 1460 1458 1457 1455 1454 1454 1454 1454 1454 1454 1456 1456 1456 1456 1453 1451 1451 1450 1450 1451 1454 1457 1461 1465 1471 1476 1480 1485
1501 1503 1501 1484 1473 1483 1494 1489 1487 1488 1496 1483 1479 1463 1449 1453 1456 1454 1453 1451 1452 1452 1452 1452 1452 1452 1452 1451 1450 1450 1448 1446 1446 1445 1445 1445 1447 1450 1454 1459 1464 1469 1473 1477
1502 1501 1497 1482 1479 1483 1482 1480 1482 1484 1470 1474 1457 1462 1440 1445 1451 1451 1452 1449 1448 1448 1446 1444 1444 1445 1445 1444 1444 1443 1440 1440 1439 1438 1438 1439 1440 1443 1447 1451 1456 1462 1467 1471
1499 1497 1496 1489 1480 1483 1482 1480 1477 1468 1461 1463 1454 1449 1434 1440 1443 1446 1445 1447 1445 1441 1440 1437 1435 1432 1432 1433 1433 1433 1433 1432 1431 1430 1431 1431 1432 1434 1439 1443 1449 1455 1459 1463
1494 1490 1492 1482 1476 1480 1476 1468 1464 1464 1458 1452 1454 1433 1432 1435 1434 1437 1437 1439 1435 1433 1431 1430 1428 1427 1425 1425 1425 1422 1423 1422 1421 1421 1421 1422 1423 1425 1430 1435 1441 1447 1451 1457
1493 1491 1490 1475 1479 1466 1450 1448 1447 1446 1443 1443 1444 1435 1426 1424 1428 1430 1431 1431 1426 1425 1422 1421 1419 1417 1416 1414 1413 1411 1411 1411 1410 1411 1412 1414 1416 1418 1422 1426 1432 1438 1444 1448
1479 1486 1481 1476 1463 1454 1450 1443 1446 1443 1435 1436 1437 1427 1421 1419 1430 1418 1418 1420 1416 1415 1413 1411 1410 1408 1407 1406 1404 1403 1402 1402 1401 1402 1403 1406 1408 1410 1414 1419 1423 1428 1434 1440
1465 1466 1471 1465 1459 1448 1436 1430 1436 1439 1435 1420 1426 1422 1418 1417 1426 1405 1412 1409 1409 1408 1408 1406 1405 1403 1401 1400 1398 1396 1395 1394 1393 1394 1397 1399 1401 1403 1407 1412 1419 1425 1429 1432
1463 1465 1459 1455 1449 1439 1431 1424 1432 1438 1428 1421 1416 1411 1410 1414 1411 1406 1405 1406 1405 1403 1403 1401 1399 1397 1394 1392 1390 1389 1388 1386 1387 1388 1390 1392 1395 1399 1404 1409 1413 1419 1423 1427
1453 1451 1449 1446 1439 1430 1426 1427 1426 1426 1426 1429 1426 1420 1415 1411 1409 1405 1402 1402 1402 1401 1398 1396 1393 1392 1390 1387 1384 1383 1383 1383 1383 1383 1385 1387 1390 1394 1398 1403 1408 1414 1418 1423
1447 1441 1440 1437 1426 1426 1426 1427 1424 1424 1427 1424 1424 1417 1413 1410 1405 1404 1399 1398 1399 1396 1395 1393 1390 1387 1386 1385 1382 1380 1380 1381 1382 1382 1384 1387 1388 1391 1395 1399 1405 1411 1417 1421
1442 1439 1436 1439 1426 1424 1421 1420 1421 1421 1418 1415 1412 1407 1408 1407 1403 1400 1397 1394 1394 1393 1392 1389 1387 1383 1381 1381 1381 1381 1380 1381 1382 1383 1385 1388 1390 1392 1396 1400 1404 1410 1415 1420
1439 1435 1430 1428 1423 1420 1417 1416 1416 1415 1413 1406 1401 1400 1400 1403 1400 1396 1391 1390 1389 1391 1389 1386 1384 1382 1381 1379 1378 1381 1383 1384 1385 1385 1387 1389 1391 1394 1398 1402 1405 1409 1413 1418
1429 1426 1426 1418 1419 1420 1415 1414 1412 1408 1405 1402 1398 1395 1390 1395 1395 1389 1384 1384 1388 1386 1382 1382 1382 1383 1382 1378 1377 1381 1384 1386 1388 1389 1390 1392 1393 1395 1398 1402 1404 1409 1415 1420